Location: Dover
(39.1580°N, 75.5250°W)
Time: 02:29:53
(UTC-04:00)

Daily predictions for brighter satellites

Satellite Brightness Start Highest point End
(mag) Time Altitude Azimuth Time Altitude Azimuth Time Altitude Azimuth
ATLAS CENTAUR R/B 4.5 00:55:10 62° W 00:56:57 70° NW 01:23:22 10° NE
ATLAS 3B R/B 4.0 01:08:52 36° NE 01:08:52 36° NE 01:12:58 10° NE
Cosmos 2278 Rocket 4.4 01:07:33 10° NNW 01:09:23 21° NNW 01:09:23 21° NNW
CZ-4C R/B 4.4 01:48:41 19° NE 01:48:41 19° NE 01:50:27 10° NE
Cosmos 2219 Rocket 4.3 02:05:33 20° NNW 02:05:33 20° NNW 02:07:49 10° N
SL-16 R/B 3.9 02:19:06 30° NNE 02:19:06 30° NNE 02:21:54 10° NNE
Cosmos 2333 Rocket 4.2 02:21:46 21° NNW 02:21:46 21° NNW 02:24:29 10° N
Cosmos 2237 Rocket 4.2 02:23:22 22° NNW 02:23:22 22° NNW 02:26:01 10° N
BREEZE-M DEB (TANK) 4.1 02:40:47 76° NE 02:40:47 76° NE 02:44:53 10° NE
ATLAS 5 CENTAUR R/B 4.3 02:51:54 15° E 02:51:54 15° E 02:53:34 10° ENE
ATLAS 3B R/B 4.1 02:56:06 29° NW 02:56:52 29° NW 03:03:12 10° NNE
Meteor 2-3 Rocket 4.2 03:14:13 10° N 03:19:55 58° ENE 03:20:01 58° E
CZ-2D R/B 2.9 03:19:04 10° NNE 03:23:57 43° E 03:23:57 43° E
Okean O Rocket 4.3 03:23:01 10° ENE 03:25:03 13° E 03:26:40 11° ESE
Cosmos 1943 3.4 03:29:24 68° ENE 03:29:24 68° ENE 03:34:28 10° NNE
IRS-1D 3.9 03:25:56 10° NNE 03:30:40 60° ENE 03:30:40 60° ENE
CZ-4C R/B 3.5 03:33:52 29° NW 03:33:52 29° NW 03:38:53 10° NNE
Cosmos 1331 Rocket 4.4 03:34:35 10° NNW 03:38:47 57° N 03:38:47 57° N
ADEOS 4.0 03:35:06 10° N 03:39:14 52° NNW 03:39:14 52° NNW
ARIANE 5 R/B 2.7 03:35:37 10° NNE 03:40:24 73° NE 03:40:24 73° NE
Cosmos 2369 Rocket 2.2 03:35:24 10° NNW 03:41:02 75° ENE 03:41:29 70° ESE
USA 234 3.1 03:40:23 10° NE 03:46:57 82° NW 03:47:57 66° WSW
SeaSat 1 4.1 03:44:31 10° ESE 03:48:51 32° NE 03:53:13 10° N
Cosmos 1455 3.5 03:51:09 40° ENE 03:51:09 40° ENE 03:54:07 10° NNE
ATLAS CENTAUR R/B 4.2 03:46:03 10° NNW 03:46:10 11° NNW 03:46:10 11° NNW
SL-16 R/B 2.4 03:52:07 61° S 03:53:18 84° WSW 03:59:32 10° NNW
Resurs 1-4 Rocket 1.9 03:53:10 10° NNE 03:58:28 86° WNW 03:58:41 82° SW
Cosmos 2242 Rocket 3.9 03:59:17 62° N 03:59:17 62° N 04:03:08 10° N
SL-16 R/B 4.4 04:00:59 11° NW 04:01:23 11° NW 04:03:05 10° NNW
Cosmos 1943 Rocket 3.1 03:58:33 10° NNW 04:04:03 49° ENE 04:09:30 10° SE
Cosmos 1862 Rocket 4.1 04:03:46 49° ESE 04:04:17 52° E 04:08:34 10° NNE
NOSS 3-2 (A) 4.3 04:04:36 35° WNW 04:05:39 37° NW 04:11:47 10° NNE
Cosmos 2263 4.1 04:09:13 10° NNW 04:15:01 80° WSW 04:20:47 10° SSE
Cosmos 1709 Rocket 3.9 04:08:47 10° NNW 04:15:07 71° W 04:17:24 41° SSW
Cosmos 2251 Rocket 4.4 04:15:49 34° WNW 04:15:49 34° WNW 04:20:24 10° N
ERS-2 4.2 04:16:31 10° NNW 04:17:59 19° NNW 04:17:59 19° NNW
CENTAUR R/B 2.6 04:19:17 38° S 04:21:42 69° ESE 04:28:25 10° NE
NOSS 3-2 (C) 4.3 04:20:58 31° WNW 04:22:37 36° NW 04:28:44 10° NNE
SL-27 R/B 3.0 04:26:50 49° SE 04:27:18 54° ESE 04:30:52 10° NNE
MOZ.5/SAFIR/RUBIN 5/SL-8 4.1 04:23:24 10° SSE 04:27:58 63° ENE 04:32:33 10° N
Cosmos 1825 3.8 04:24:43 10° N 04:28:13 34° ENE 04:31:43 10° SE
BREEZE-M DEB (TANK) 3.8 04:28:26 26° NNE 04:28:31 26° NNE 04:30:35 10° E
Cosmos 1733 Rocket 2.9 04:27:01 10° NNW 04:31:22 70° W 04:32:11 55° SSW
IRS-1C Rocket 4.2 04:26:47 10° NNE 04:32:05 74° ESE 04:35:13 25° S
ARGOS Delta rocket 3.5 04:29:34 10° N 04:33:59 85° WNW 04:35:21 44° SSW
ATLAS 5 CENTAUR R/B 2.0 04:33:28 46° W 04:34:30 56° NW 04:39:38 10° NNE
Cosmos 2074 Rocket 4.1 04:31:06 10° N 04:37:20 76° E 04:43:33 10° SSE
Cosmos 2184 Rocket 4.1 04:34:57 10° N 04:41:22 79° E 04:47:43 10° S
Cosmos 1862 3.8 04:37:48 10° N 04:41:45 59° E 04:45:39 10° SSE
EO 1 Del DPAF 4.4 04:43:01 29° WNW 04:43:01 29° WNW 04:45:25 10° NNW
UNKNOWN OBJECT B 3.7 04:41:20 10° N 04:44:16 31° WNW 04:44:16 31° WNW
PSLV R/B 3.6 04:47:17 43° NW 04:48:10 63° N 04:51:34 10° E
Cosmos 1869 3.8 04:50:13 39° W 04:50:28 39° WNW 04:54:13 10° N
CZ-4B R/B 2.6 04:53:31 10° NNE 04:57:12 89° WNW 04:59:29 23° SSW
Cosmos 1933 3.2 04:55:33 25° SSW 04:57:51 76° W 05:01:58 10° N
BREEZE-M DEB (TANK) 3.1 04:59:15 40° SSW 04:59:55 56° SE 05:04:00 10° ENE
Cosmos 1908 Rocket 3.4 04:55:44 10° N 05:00:07 78° W 05:04:27 10° S
Okean O Rocket 1.8 04:57:22 10° N 05:01:44 54° WNW 05:04:08 25° SW
CZ-2D R/B 4.4 04:58:00 10° N 05:01:55 32° WNW 05:03:04 28° W
Cosmos 2221 Rocket 3.6 04:58:01 11° S 05:02:17 81° E 05:06:44 10° N
CZ-2D R/B 3.4 04:59:51 10° NNW 05:03:51 22° WNW 05:05:16 20° W
Cosmos 407 Rocket 4.2 05:01:19 10° S 05:06:21 53° ESE 05:11:29 10° NNE
Okean-O 3.4 05:02:32 10° NNE 05:06:53 52° E 05:11:12 10° S
SL-08 ROCKET BODY 4.4 05:01:08 10° NNW 05:07:09 69° W 05:13:11 10° S
Atlas Centaur 2 3.5 05:07:31 13° SSW 05:09:54 18° SSE 05:13:30 10° ESE
Cosmos 2285 Rocket 4.0 05:05:24 10° NNW 05:11:49 77° WSW 05:18:11 10° S
COSMOS 2406 3.3 05:08:58 18° SW 05:13:15 65° WNW 05:19:00 10° NNE
Cosmos 1703 Rocket 3.6 05:12:39 13° SSW 05:16:38 62° W 05:21:05 10° N
Sich 1 Rocket 4.0 05:13:27 10° NNW 05:17:31 38° W 05:21:35 10° SSW
Cosmos 389 Rocket 3.8 05:17:29 21° W 05:17:56 21° WNW 05:20:41 10° NNW
ARIANE 5 R/B 4.5 05:17:08 10° NW 05:19:15 12° WNW 05:20:44 11° WNW
Cosmos 2369 Rocket 3.9 05:21:44 10° WNW 05:23:06 13° W 05:23:06 13° W
SeaSat 1 3.1 05:21:55 10° S 05:26:19 32° WSW 05:30:43 10° NW
Cosmos 1455 4.4 05:26:13 11° WNW 05:26:22 11° WNW 05:27:33 10° NW
CZ-4B DEB 4.4 05:21:22 10° N 05:26:39 52° WNW 05:31:54 10° SW
CZ-4B R/B 3.5 05:23:06 10° N 05:28:09 45° WNW 05:33:08 10° SW
Meteor PRIRODA 4.0 05:24:58 10° NNE 05:28:45 70° E 05:32:29 10° S
USA 234 4.5 05:23:51 10° NNE 05:29:22 30° NNW 05:34:52 10° W
Geosat 4.0 05:28:26 10° NNE 05:33:28 75° WNW 05:38:28 10° SSW
USA 129 3.3 05:35:23 11° NNW 05:35:23 11° NNW 05:35:30 10° NNW
Resurs 1-4 Rocket 4.1 05:36:11 10° NW 05:37:29 11° WNW 05:38:46 10° WNW
SL-16 R/B 4.2 05:37:13 11° W 05:37:45 11° W 05:39:06 10° WNW
USA 116 4.3 05:33:21 10° S 05:38:03 80° WSW 05:43:15 10° NNW
PSLV R/B 3.6 05:33:58 10° N 05:38:18 61° WNW 05:42:37 10° SSW
COSMOS 2487 2.4 05:36:21 10° SSW 05:39:57 72° WNW 05:43:34 10° NNE
Meteor 2-10 Rocket 4.0 05:39:01 10° S 05:44:48 76° E 05:50:32 10° NNE
GPS 2-05 Rocket1 4.1 05:43:30 10° SW 05:46:23 27° SSE 05:49:14 10° ESE
Cosmos 2082 Rocket 4.3 05:41:56 10° SSE 05:46:45 29° ESE 05:51:33 10° NE
Cosmos 1943 Rocket 3.3 05:43:10 10° NW 05:47:23 22° W 05:51:34 10° SSW
Meteor 2-13 Rocket 4.4 05:43:47 10° N 05:49:52 86° W 05:55:55 10° S
MOS 1 Rocket 3.6 05:47:19 10° NNE 05:51:35 64° E 05:55:51 10° S
Cosmos 1190 Rocket 4.4 05:47:07 10° SW 05:52:05 46° WNW 05:57:05 10° N
ADEOS II 2.2 05:47:30 10° N 05:52:41 60° WNW 05:57:49 10° SSW
Thor Agena Rocket 4.2 05:48:10 10° SSW 05:52:45 33° W 05:57:25 10° NNW
Okean 2 Rocket 3.6 05:50:53 10° NNW 05:55:05 40° W 05:59:18 10° SSW
Okean 1-7 3.7 05:51:16 10° SW 05:55:13 35° WNW 05:59:13 10° N
Cosmos 1408 4.3 05:53:27 10° NW 05:55:48 16° W 05:58:10 10° SW
Centaur D-1A AC-31 3.0 06:00:45 10° WSW 06:06:23 22° SSW 06:09:22 10° SSE
